sat.trackr.live / text

‹ back to catalog

TJS-13

NORAD 62188 · 2024-227A

PAYLOAD ACTIVE UNKNOWN

§ Identity

Operator
Country
PRC
Launch date
2024-12-03
Launch site
XICLF
Launch vehicle
Mass (kg)
RCS (m²)

External: N2YO · Heavens-Above · Gunter

§ Orbital elements

Epoch: 2026-09-19T14:36:41.232384Z

Period
717.75 min
Inclination
63.8372°
Eccentricity
0.6979521
Mean motion
2.00626286 rev/d
Perigee alt
1,642.7 km
Apogee alt
38,710.7 km
Semi-major
26,554.8 km
B*
0.0000e+0
RAAN
27.5816°
Arg perigee
269.4012°
Mean anomaly
17.4561°
Rev number
1,314

§ Raw data

TJS-131 62188U 24227A   26262.60881056  .00000518  00000+0  00000+0 0  99962 62188  63.8372  27.5816 6979521 269.4012  17.4561  2.00626286 13143

JSON: /api/v1/satellites/62188 · /tle

For live sub-satellite position, see the globe view (requires WebGL).

§ Visibility from observer

Set your observer location to see the next 7 days of passes ≥ 10°. The values pass through the URL so the page stays shareable.

No JS? Fill the form by hand. The geolocation button needs JavaScript.